GW2249 Weather Reports


Display with metric or nautical units.
time (UTC)temp
F
wind
direction
speed
MPH
gust
MPH
rain 1hr
in
rain 24hr
in
rain mn
in
humidity
%
barometer
mb
20260906031604 75 0 0.0 0.0 0.00 0.00 0.00 89 1014.0
20260906030101 75 0 0.0 0.0 0.00 0.00 0.00 88 1014.0
20260906024556 76 0 0.0 2.0 0.00 0.00 0.00 88 1014.1
20260906023100 76 0 0.0 1.0 0.00 0.00 0.00 87 1013.9
20260906021603 77 0 0.0 1.0 0.00 0.00 0.00 85 1013.8
20260906014611 79 0 0.0 2.0 0.00 0.00 0.00 82 1013.0
20260906013100 80 198 0.0 2.0 0.00 0.00 0.00 80 1013.1
20260906011619 81 0 0.0 0.0 0.00 0.00 0.00 78 1013.1
20260906010056 82 0 0.0 2.0 0.00 0.00 0.00 76 1013.2
20260906004558 82 0 0.0 8.0 0.00 0.00 0.00 75 1013.4
20260906003056 81 183 0.0 2.0 0.00 0.00 0.00 80 1013.2
20260906001600 82 0 0.0 2.0 0.00 0.00 0.00 78 1013.2
20260906000101 83 0 0.0 2.0 0.00 0.00 0.00 75 1013.1
20260905234558 85 0 1.0 2.0 0.00 0.00 0.00 71 1013.1
20260905233118 87 78 0.0 6.0 0.00 0.00 0.00 68 1012.7
20260905231557 88 0 1.0 4.0 0.00 0.00 0.00 63 1012.7
20260905224612 90 96 2.0 5.0 0.00 0.00 0.00 60 1012.8
20260905223105 91 40 4.0 10.0 0.00 0.00 0.00 59 1013.1
20260905221553 92 107 2.0 7.0 0.00 0.00 0.00 56 1013.2
20260905220104 93 73 1.0 4.0 0.00 0.00 0.00 57 1013.0
20260905214556 93 58 2.0 5.0 0.00 0.00 0.00 56 1013.0
20260905213102 93 115 1.0 9.0 0.00 0.00 0.00 56 1013.1
20260905211603 93 111 1.0 9.0 0.00 0.00 0.00 57 1013.1
20260905210058 94 122 2.0 9.0 0.00 0.00 0.00 55 1013.3
20260905204603 93 88 1.0 7.0 0.00 0.00 0.00 56 1013.2
20260905203105 92 175 0.0 5.0 0.00 0.00 0.00 55 1013.3
20260905201611 92 128 1.0 7.0 0.00 0.00 0.00 56 1013.6
20260905200107 92 31 1.0 4.0 0.00 0.00 0.00 58 1013.5
20260905194601 93 208 2.0 9.0 0.00 0.00 0.00 57 1013.8
20260905193101 93 55 4.0 15.0 0.00 0.00 0.00 55 1013.9
20260905191558 96 194 2.0 6.0 0.00 0.00 0.00 55 1014.1
20260905190138 96 286 2.0 8.0 0.00 0.00 0.00 53 1014.2
20260905184622 97 300 2.0 7.0 0.00 0.00 0.00 53 1014.2
20260905183101 96 187 4.0 8.0 0.00 0.00 0.00 56 1014.4
20260905181600 94 106 3.0 7.0 0.00 0.00 0.00 55 1014.7
20260905180056 95 205 3.0 6.0 0.00 0.00 0.00 54 1015.0
20260905174601 95 142 1.0 7.0 0.00 0.00 0.00 56 1015.0
20260905173059 95 84 4.0 9.0 0.00 0.00 0.00 56 1015.1
20260905171558 94 5 2.0 7.0 0.00 0.00 0.00 58 1015.2
20260905170104 93 63 2.0 9.0 0.00 0.00 0.00 62 1015.6
20260905164559 92 82 2.0 6.0 0.00 0.00 0.00 64 1015.7
20260905163105 90 42 2.0 4.0 0.00 0.00 0.00 68 1015.9
20260905161557 88 196 1.0 4.0 0.00 0.00 0.00 71 1016.2
20260905160057 86 352 2.0 6.0 0.00 0.00 0.00 74 1016.2
20260905154606 85 211 1.0 4.0 0.00 0.00 0.00 78 1016.4
20260905153102 84 0 0.0 3.0 0.00 0.00 0.00 79 1016.4
20260905151558 82 0 0.0 2.0 0.00 0.00 0.00 82 1016.4
20260905150100 82 0 0.0 4.0 0.00 0.00 0.00 84 1016.5
20260905144558 82 0 0.0 1.0 0.00 0.00 0.00 86 1016.6
20260905143100 81 0 0.0 2.0 0.00 0.00 0.00 86 1016.6
20260905141630 80 0 1.0 3.0 0.00 0.00 0.00 88 1016.7
20260905134559 76 148 1.0 3.0 0.00 0.00 0.00 96 1016.5
20260905133058 74 0 0.0 3.0 0.00 0.00 0.00 97 1016.7
20260905131615 73 0 0.0 1.0 0.00 0.00 0.00 97 1016.8
20260905130116 72 0 0.0 2.0 0.00 0.00 0.00 97 1016.7
20260905124600 72 0 0.0 0.0 0.00 0.00 0.00 98 1016.9
20260905123110 71 0 0.0 0.0 0.00 0.00 0.00 98 1016.8
20260905121557 70 0 0.0 0.0 0.00 0.00 0.00 97 1016.7
20260905120058 69 0 0.0 0.0 0.00 0.00 0.00 97 1016.7
20260905114553 69 0 0.0 0.0 0.00 0.00 0.00 97 1016.6
20260905113112 69 0 0.0 0.0 0.00 0.00 0.00 97 1016.2
20260905111559 69 0 0.0 0.0 0.00 0.00 0.00 97 1015.9
20260905110057 69 0 0.0 0.0 0.00 0.00 0.00 97 1015.8
20260905104558 69 0 0.0 0.0 0.00 0.00 0.00 97 1015.7
20260905103058 68 0 0.0 0.0 0.00 0.00 0.00 96 1015.6
20260905101629 69 0 0.0 0.0 0.00 0.00 0.00 96 1015.6
20260905100100 69 0 0.0 0.0 0.00 0.00 0.00 97 1015.5
20260905094600 68 0 0.0 0.0 0.00 0.00 0.00 96 1015.4
20260905093102 68 0 0.0 0.0 0.00 0.00 0.00 96 1015.3
20260905091614 69 0 0.0 0.0 0.00 0.00 0.00 96 1015.3
20260905090058 69 0 0.0 0.0 0.00 0.00 0.00 96 1015.4
20260905084618 69 0 0.0 0.0 0.00 0.00 0.00 96 1015.3
20260905083059 69 0 0.0 0.0 0.00 0.00 0.00 96 1015.3
20260905081557 69 0 0.0 0.0 0.00 0.00 0.00 96 1015.4
20260905080059 69 0 0.0 0.0 0.00 0.00 0.00 96 1015.5
20260905074559 69 0 0.0 0.0 0.00 0.00 0.00 95 1015.4
20260905073051 69 0 0.0 0.0 0.00 0.00 0.00 95 1015.5
20260905071600 69 0 0.0 0.0 0.00 0.00 0.00 95 1015.6
20260905070113 70 0 0.0 0.0 0.00 0.00 0.00 95 1015.7
20260905064555 70 0 0.0 0.0 0.00 0.00 0.00 95 1015.7
20260905063102 70 0 0.0 0.0 0.00 0.00 0.00 95 1015.8
20260905061612 71 0 0.0 0.0 0.00 0.00 0.00 95 1015.7
20260905060054 71 0 0.0 1.0 0.00 0.00 0.00 95 1015.9
20260905054554 71 0 0.0 0.0 0.00 0.00 0.00 95 1016.0
20260905053111 71 0 0.0 0.0 0.00 0.00 0.00 94 1015.9
20260905051601 71 0 0.0 0.0 0.00 0.00 0.00 94 1015.7
20260905044559 72 0 0.0 0.0 0.00 0.00 0.00 93 1015.8
20260905043057 72 0 0.0 0.0 0.00 0.00 0.00 93 1015.8
20260905041554 73 0 0.0 0.0 0.00 0.00 0.00 93 1015.8
20260905040059 73 0 0.0 0.0 0.00 0.00 0.00 93 1016.0
20260905034556 73 0 0.0 0.0 0.00 0.00 0.00 92 1016.2
20260905033101 74 0 0.0 0.0 0.00 0.00 0.00 92 1016.3